Flag for Germany Weather past 2 weeks in Lage, North Rhine-Westphalia, Germany

Now
59 °F

Drizzle. Overcast.


Feels Like: 60 °F
Forecast: 49 / 65 °F
Wind: 3 mph from West

Location: Bad Lippspringe

Current Time: Sep 2, 2015 at 8:05:55 PM

Latest Report: Sep 2, 2015 at 7:00 PM


Visibility: 13 mi

Pressure: 30.00 "Hg

Humidity: 75%

Dew point: 51 °F

Location of LageLocation

Historic Weather in Lage — Graph

°F

Lage temperature yesterday

Maximum temperature yesterday: 69 °F (at 3:00 AM)
Minimum temperature yesterday: 56 °F (at 11:00 PM)
Average temperature yesterday: 63 °F

Past Weeks' High & Low Weather Summary

 TemperatureHumidityPressure
High90 °F (Aug 31, 4:00 PM)100% (Aug 19, 7:00 AM)30.27 "Hg (Aug 19, 7:00 AM)
Low49 °F (Aug 29, 6:00 AM)27% (Aug 31, 4:00 PM)29.59 "Hg (Aug 24, 6:00 PM)
Average66 °F71%29.99 "Hg
* Reported Aug 18 7:00 PM — Sep 2 7:00 PM, Lage, Weather by CustomWeather, © 2015

Note: Actual official high and low records may vary slightly from our data, if they occured in-between our weather recording intervals... More about our weather records

Advertising

Lage weather history for previous 24 hours

 ConditionsComfort  
Time TempWeatherWind HumidityBarometerVisibility
7:00 PM
Wed, Sep 2
59 °FDrizzle. Overcast.3 mph75%30.00 "Hg13 mi
6:00 PM61 °FOvercast.3 mph71%29.99 "Hg17 mi
5:00 PM63 °FOvercast.3 mph61%29.98 "Hg28 mi
4:00 PM65 °FScattered clouds.5 mph55%29.98 "Hg18 mi
3:00 PM65 °FPassing clouds.3 mph56%30.00 "Hg18 mi
2:00 PM65 °FOvercast.3 mph58%30.01 "Hg12 mi
1:00 PM61 °FSunny.5 mph59%30.03 "Hg9 mi
12:00 PM61 °FPassing clouds.3 mph69%30.04 "Hg14 mi
11:00 AM58 °FScattered clouds.2 mph77%30.05 "Hg16 mi
10:00 AM55 °FPartly sunny.3 mph85%30.05 "Hg12 mi
9:00 AM54 °FPassing clouds.3 mph88%30.04 "Hg9 mi
8:00 AM52 °FSunny.1 mph94%30.04 "Hg6 mi
7:00 AM51 °FFog.2 mph97%30.04 "Hg4 mi
5:00 AM51 °FFog.2 mph98%30.04 "Hg4 mi
4:00 AM52 °FPassing clouds.2 mph98%30.04 "Hg5 mi
3:00 AM52 °FClear.1 mph98%30.04 "Hg5 mi
2:00 AM53 °FFog.1 mph99%30.03 "Hg4 mi
1:00 AM54 °FFog.2 mph99%30.03 "Hg3 mi
11:00 PM
Tue, Sep 1
56 °FOvercast.2 mph98%30.00 "Hg5 mi
10:00 PM57 °FPassing clouds.2 mph97%29.99 "Hg6 mi
9:00 PM57 °FOvercast.1 mph98%29.98 "Hg7 mi
8:00 PM58 °FOvercast.2 mph93%29.96 "Hg12 mi
Weather by CustomWeather, © 2015

See weather overviewHow to use our weather pages